Regional Weather Roundup
Issued by NWS Little Rock, AR

Home | Current Version | Previous Version | Graphics & Text | Print | Product List | Glossary On
Versions: 1 2 3 4 5 6 7 8 9 10 11 12 13 14 15 16 17 18 19 20 21 22 23 24 25 26 27 28 29 30 31 32 33 34 35 36 37 38 39 40 41 42 43
000
ASUS44 KLZK 211705
RWRLZK

WEATHER ROUNDUP FOR ARKANSAS
NATIONAL WEATHER SERVICE LITTLE ROCK AR
1200 PM CDT TUE OCT 21 2014

NOTE: "FAIR" INDICATES FEW OR NO CLOUDS BELOW 12,000 FEET WITH NO
SIGNIFICANT WEATHER AND/OR OBSTRUCTIONS TO VISIBILITY.

ARZ001-003-010-029-211800-
NORTHWEST ARKANSAS

CITY           SKY/WX    TMP DP  RH WIND       PRES   REMARKS
FAYETTEVILLE   SUNNY     70  55  59 CALM      30.15F
FORT SMITH     SUNNY     73  60  63 VRB3      30.12F
HARRISON       SUNNY     70  51  51 CALM      30.15S
BENTONVILLE    SUNNY     64  61  88 CALM      30.16S
ROGERS         SUNNY     66  60  81 CALM      30.16F
SILOAM SPGS    SUNNY     66  55  68 S5        30.16S
HIGHFILL       SUNNY     67  60  78 CALM      30.15S
SPRINGDALE     SUNNY     68  59  73 CALM      30.17F
$$

ARZ004-005-016-211800-
NORTH CENTRAL ARKANSAS

CITY           SKY/WX    TMP DP  RH WIND       PRES   REMARKS
BATESVILLE     SUNNY     72  46  40 CALM      30.13S
FLIPPIN        SUNNY     59  54  82 CALM      30.15F
MTN HOME       SUNNY     66  52  60 CALM      30.14S
$$

ARZ040-041-211800-
WEST CENTRAL ARKANSAS

CITY           SKY/WX    TMP DP  RH WIND       PRES   REMARKS
MENA           SUNNY     73  63  68 CALM      30.14F
MOUNT IDA      SUNNY     72  58  61 CALM      30.12S
$$

ARZ009-017-025-026-028-211800-
NORTHEAST ARKANSAS

CITY           SKY/WX    TMP DP  RH WIND       PRES   REMARKS
CORNING        FAIR      70  48  46 NW6       30.12F
JONESBORO      SUNNY     72  46  39 N6        30.12S
NEWPORT        SUNNY     71  49  45 NE3       30.14S
WALNUT RIDGE   SUNNY     72  46  40 W7        30.12F
BLYTHEVILLE    SUNNY     75  48  38 N8        30.11F
NW BLYTHEVILLE SUNNY     72  48  43 VRB5      31.11R
$$

ARZ022-023-033-042-044-211800-
CENTRAL ARKANSAS

CITY           SKY/WX    TMP DP  RH WIND       PRES   REMARKS
LITTLE ROCK    SUNNY     74  53  48 CALM      30.12F
N LITTLE ROCK  SUNNY     72  57  59 NE3       30.12F
JACKSONVILLE   SUNNY     73  52  49 CALM      30.12F
SEARCY         SUNNY     73  51  46 CALM      30.13F
HOT SPRINGS    SUNNY     72  59  63 NE3       30.13F
RUSSELLVILLE   SUNNY     69  60  73 VRB3      30.13F
$$

ARZ036-211800-
EAST ARKANSAS

CITY           SKY/WX    TMP DP  RH WIND       PRES   REMARKS
WEST MEMPHIS   SUNNY     73  48  41 VRB7      30.10S
$$

ARZ050-053-066-070-073-211800-
SOUTHWEST ARKANSAS

CITY           SKY/WX    TMP DP  RH WIND       PRES   REMARKS
ARKADELPHIA    FAIR      74  62  66 VRB5      30.12F
CAMDEN         MOSUNNY   77  59  53 N3        30.11F
TEXARKANA      MOSUNNY   76  59  55 VRB5      30.12F
EL DORADO      SUNNY     74  59  59 VRB3      30.12F
DE QUEEN       MOSUNNY   76  64  66 S5        30.10F
$$

ARZ056-057-069-211800-
SOUTHEAST ARKANSAS

CITY           SKY/WX    TMP DP  RH WIND       PRES   REMARKS
PINE BLUFF     SUNNY     72  59  63 W5        30.12S
STUTTGART      SUNNY     72  55  56 CALM      30.12F
MONTICELLO     MOSUNNY   74  60  61 S3        30.11S

$$





USA.gov is the U.S. government's official web portal to all federal, state and local government web resources and services.